[Date Prev][Date Next][Thread Prev][Thread Next] - [Date Index][Thread Index][Author Index]

2 Line ISS Keps 2-26



ISS
1 25544U 98067A   02057.03574383  .00051381  00000-0  59746-3 0  1193
2 25544  51.6377 251.5028 0011008 117.4768  32.3143 15.61135519186691


----
Via the sarex mailing list at AMSAT.ORG courtesy of AMSAT-NA.
To unsubscribe, send "unsubscribe sarex" to Majordomo@amsat.org



AMSAT Top AMSAT Home